This demonstration page uses our WeatherBlox Daily Observations layout. Learn more.

Left ArrowRight Arrow

Hourly Observations for July 28, 2017

Temp ( °F °C ) Dew Point ( °F °C ) Humidity (%) Winds ( mph kmh ) Pressure ( in mb ) Visibility ( mi km ) Precip ( " mm )
12:53 am 00:53 Clear 83 28.3 56 13.3 40 40 SE 10 17 29.84 1011 10 16 0.00 0.00
1:53 am 01:53 Clear 81 27.2 56 13.3 42 42 ESE 9 15 29.83 1010 10 16 0.00 0.00
2:53 am 02:53 Clear 80 26.7 56 13.3 44 44 ESE 8 13 29.83 1010 10 16 0.00 0.00
3:53 am 03:53 Clear 79 26.1 57 13.9 47 47 ESE 13 20 29.82 1010 10 16 0.00 0.00
4:53 am 04:53 Clear 77 25 57 13.9 50 50 ESE 12 19 29.81 1010 10 16 0.00 0.00
5:53 am 05:53 Clear 76 24.4 58 14.4 54 54 ESE 9 15 29.83 1010 10 16 0.00 0.00
6:53 am 06:53 Clear 75 23.9 59 15 58 58 SE 12 19 29.84 1011 10 16 0.00 0.00
7:53 am 07:53 Sunny 76 24.4 59 15 56 56 ESE 12 19 29.85 1011 10 16 0.00 0.00
8:53 am 08:53 Sunny 79 26.1 60 15.6 52 52 SE 14 22 29.86 1011 10 16 0.00 0.00
9:53 am 09:53 Sunny 83 28.3 59 15 44 44 SSE 9 15 29.88 1012 10 16 0.00 0.00
10:53 am 10:53 Sunny 87 30.6 59 15 39 39 SSE 7 11 29.87 1012 10 16 0.00 0.00
11:53 am 11:53 Sunny 90 32.2 58 14.4 34 34 S 9 15 29.86 1011 10 16 0.00 0.00
12:53 pm 12:53 Sunny 93 33.9 58 14.4 31 31 ESE 10 17 29.84 1010 10 16 0.00 0.00
1:53 pm 13:53 Sunny 95 35 54 12.2 25 25 SE 8 13 29.82 1010 10 16 0.00 0.00
2:53 pm 14:53 Sunny 97 36.1 50 10 20 20 SE 8 13 29.79 1009 10 16 0.00 0.00
3:53 pm 15:53 Sunny 98 36.7 49 9.4 19 19 SSE 7 11 29.78 1008 10 16 0.00 0.00
4:53 pm 16:53 Sunny 100 37.8 51 10.6 19 19 undefined N/A 29.75 1008 10 16 0.00 0.00
5:53 pm 17:53 Sunny 100 37.8 49 9.4 18 18 ESE 8 13 29.74 1007 10 16 0.00 0.00
6:53 pm 18:53 Sunny 99 37.2 50 10 19 19 ESE 10 17 29.74 1007 10 16 0.00 0.00
7:53 pm 19:53 Sunny 97 36.1 50 10 20 20 ESE 10 17 29.73 1007 10 16 0.00 0.00
8:53 pm 20:53 Clear 94 34.4 51 10.6 23 23 SE 10 17 29.75 1007 10 16 0.00 0.00
9:53 pm 21:53 Clear 91 32.8 53 11.7 27 27 SE 10 17 29.76 1008 10 16 0.00 0.00
10:53 pm 22:53 Clear 88 31.1 53 11.7 30 30 SE 9 15 29.79 1009 10 16 0.00 0.00
11:53 pm 23:53 Clear 86 30 52 11.1 31 31 SSE 9 15 29.82 1010 10 16 0.00 0.00

Powered by AerisWeather